Temp
52 46 41 46 50 46 51 47 53 61 61 57 59 62 66 72 73 73 73 75 77 79 82 84 83 82 79 79 79 79 78 77 76 73 72 71 70 72 73 75 75 75 74 73
46 42 53 53 48 45 44 44 46 55 57 55 58 58 64 68 70 72 72 74 76 78 80 81 82 81 79 78 78 78 78 78 76 76 75 73 72 74 74 74 74 74 74 73
47 52 57 53 47 43 43 42 42 44 52 56 54 53 58 66 69 72 73 75 76 77 78 81 81 80 79 78 77 77 78 78 78 77 76 74 73 72 71 72 71 73 73 73
50 59 54 52 49 50 40 49 47 44 44 41 53 40 56 62 67 70 72 72 74 77 79 81 82 82 78 78 79 79 78 78 78 78 75 72 69 68 71 72 73 73 73 73
48 51 50 49 51 52 49 55 51 49 43 44 48 42 53 61 59 65 69 72 75 76 78 79 81 82 84 82 78 78 78 77 78 77 75 73 71 72 73 72 73 72 73 72
51 57 56 55 57 55 52 48 48 50 46 35 46 48 51 58 62 67 71 74 75 77 78 80 80 80 80 80 79 76 76 77 77 77 76 74 72 72 71 71 72 73 73 72
43 46 51 53 50 54 49 43 33 32 32 36 52 48 53 63 67 68 69 71 75 75 75 75 75 76 76 75 75 75 75 75 77 76 75 74 73 73 72 73 72 72 71 71
35 34 46 53 51 46 44 46 38 30 32 41 44 41 53 65 69 70 70 71 72 71 73 73 73 74 74 74 73 74 73 73 75 75 75 75 74 74 74 74 74 73 72 72
34 35 51 53 56 55 43 38 50 40 33 37 47 52 60 62 63 64 64 66 68 71 69 70 71 71 72 73 73 72 73 73 74 75 75 74 74 73 73 74 74 74 73 73
44 35 45 49 50 53 51 54 37 37 30 31 44 47 50 58 60 63 63 64 66 66 67 68 70 69 70 70 71 73 74 73 73 74 75 73 73 73 73 74 73 73 73 72
48 45 38 46 41 39 41 40 43 41 37 35 36 46 60 63 65 62 62 63 64 62 64 65 68 70 68 67 66 66 68 69 70 71 73 72 71 72 72 72 72 72 72 71
48 41 34 40 50 54 51 46 42 36 33 38 37 42 63 65 66 60 63 64 63 62 63 65 66 69 69 68 66 64 64 65 67 69 69 69 70 69 69 70 70 71 70 70
46 37 31 34 42 48 46 49 49 47 41 34 32 43 63 65 65 65 64 66 66 65 65 67 69 69 70 70 67 66 66 64 64 66 66 67 66 67 67 68 69 69 68 67
50 44 39 35 43 48 42 46 50 48 38 39 41 46 56 60 62 65 66 65 64 64 64 66 67 68 70 70 68 65 65 65 62 62 62 63 64 65 66 66 66 65 63 62
50 37 43 45 47 48 46 46 47 45 47 41 46 48 53 58 60 61 63 63 62 62 63 64 64 65 68 67 67 66 63 61 60 59 59 60 60 62 63 61 59 58 58 60
49 34 42 35 45 45 40 44 44 45 47 47 48 47 59 60 61 59 61 62 62 62 63 64 65 65 65 67 66 66 64 61 57 56 55 58 53 51 52 52 50 49 48 49
43 37 32 31 39 38 31 39 44 46 48 46 39 47 55 54 57 59 60 61 61 62 63 63 64 65 65 66 66 65 64 61 54 52 49 48 47 43 43 43 42 42 43 43
40 35 34 31 31 23 41 53 52 47 50 53 52 53 55 57 60 61 62 61 60 62 63 64 65 66 67 67 67 64 61 57 52 48 46 43 42 41 41 40 40 41 41 41
43 38 31 28 29 36 41 46 44 43 44 54 52 55 57 59 59 59 65 62 61 62 62 63 64 64 65 65 66 60 54 50 47 46 45 43 42 40 40 40 42 43 41 40
36 36 33 29 25 24 42 48 54 53 35 54 55 55 55 57 47 54 53 54 56 58 58 58 58 60 62 63 64 55 48 48 48 47 46 45 43 39 39 40 41 39 40 36
30 31 28 29 27 32 45 50 52 32 39 50 52 51 48 46 50 48 50 50 51 51 51 54 54 56 58 59 53 51 51 50 50 48 45 42 42 38 39 38 38 36 36 35
30 28 28 30 27 24 50 47 40 43 43 39 39 41 37 39 40 42 44 45 45 46 46 47 47 49 51 50 48 48 49 52 49 43 41 40 38 38 37 36 35 35 35 34
31 38 33 35 35 48 52 44 36 35 34 33 33 34 33 33 36 37 37 39 39 40 41 42 41 41 43 44 44 43 46 47 41 38 37 35 35 36 36 35 34 34 34 35
37 44 36 37 42 45 47 35 30 30 29 31 31 29 30 29 31 31 33 33 34 35 36 37 37 36 37 41 40 42 42 41 37 36 35 35 35 35 35 36 36 36 35 35
37 39 36 36 42 33 30 26 25 26 28 26 26 27 27 27 27 28 28 28 30 32 32 33 33 33 35 38 38 40 39 36 36 35 35 34 35 34 34 35 36 36 37 38
21 19 30 34 21 17 22 23 23 23 20 21 21 21 23 23 23 24 24 27 26 26 28 28 29 31 32 32 34 36 36 34 35 35 35 35 35 34 34 35 31 36 37 38
MSLP
1017.58 1018.18 1018.15 1018.03 1017.70 1017.88 1017.09 1016.33 1015.20 1014.21 1014.46 1014.48 1013.36 1012.36 1011.31 1010.94 1010.57 1010.23 1010.24 1010.00 1009.77 1009.76 1010.25 1010.48 1010.97 1011.65 1012.48 1012.97 1013.17 1013.54 1014.03 1014.68 1015.60 1016.32 1016.48 1016.77 1016.94 1017.39 1017.63 1017.71 1018.07 1018.36 1018.75 1019.20
1017.24 1016.42 1016.59 1017.88 1017.68 1018.61 1018.57 1017.96 1017.00 1015.93 1015.83 1015.46 1014.12 1012.61 1011.69 1010.76 1010.22 1009.99 1009.73 1009.40 1009.28 1009.22 1009.45 1009.72 1010.21 1010.91 1011.41 1011.89 1012.48 1012.98 1013.38 1013.92 1014.51 1014.91 1015.51 1016.10 1016.54 1016.68 1016.98 1017.28 1017.55 1017.78 1018.05 1018.42
1014.61 1014.46 1015.88 1016.16 1017.20 1018.08 1018.76 1018.38 1018.00 1017.91 1016.83 1015.75 1014.81 1012.48 1011.52 1009.76 1009.72 1009.28 1008.97 1008.91 1008.88 1008.72 1008.62 1008.79 1009.34 1010.03 1010.59 1010.82 1011.28 1011.80 1012.30 1012.88 1013.49 1014.00 1014.60 1015.32 1016.01 1016.35 1016.30 1016.32 1016.89 1017.10 1017.41 1017.63
1014.31 1014.38 1014.89 1015.35 1016.01 1016.85 1017.49 1017.72 1018.44 1018.46 1017.57 1015.88 1015.47 1012.44 1010.37 1009.17 1008.01 1007.77 1007.96 1008.10 1008.07 1007.83 1007.94 1007.94 1008.06 1008.46 1009.30 1009.85 1010.55 1010.91 1011.29 1011.80 1012.52 1013.23 1013.81 1013.95 1014.36 1014.75 1014.98 1015.33 1015.79 1016.28 1016.62 1016.90
1012.80 1013.16 1013.88 1014.25 1014.44 1016.05 1015.83 1016.74 1017.44 1017.86 1017.53 1016.84 1015.16 1013.75 1009.65 1008.85 1007.66 1007.43 1007.45 1006.95 1006.89 1007.05 1007.17 1007.26 1007.51 1007.77 1008.08 1008.56 1009.44 1010.22 1010.68 1011.04 1011.50 1012.20 1012.80 1013.24 1013.51 1013.80 1014.27 1014.75 1014.84 1015.22 1015.58 1016.01
1013.42 1013.46 1013.69 1013.35 1014.29 1015.06 1016.15 1016.94 1017.48 1017.18 1017.03 1015.69 1013.78 1012.45 1008.81 1007.58 1006.75 1006.29 1006.12 1006.15 1006.43 1006.68 1006.81 1006.94 1007.32 1007.81 1008.08 1008.48 1009.00 1009.58 1010.03 1010.29 1010.65 1011.21 1011.70 1012.24 1012.47 1012.91 1013.39 1013.59 1013.73 1013.92 1014.36 1014.76
1013.97 1013.68 1013.81 1014.01 1014.26 1014.93 1015.77 1016.62 1016.76 1016.72 1016.28 1013.54 1012.12 1011.14 1008.31 1007.14 1006.42 1006.38 1006.52 1006.55 1006.62 1007.06 1007.32 1007.45 1007.58 1007.89 1008.24 1008.54 1008.69 1009.08 1009.41 1009.46 1009.77 1010.05 1010.53 1011.03 1011.52 1012.01 1012.20 1012.40 1012.64 1013.00 1013.25 1013.52
1013.00 1013.69 1013.23 1013.46 1013.26 1013.79 1014.77 1015.01 1014.94 1015.27 1014.82 1013.28 1012.81 1009.80 1007.25 1006.72 1006.32 1006.46 1006.61 1006.96 1007.32 1007.76 1007.76 1007.78 1007.90 1008.10 1008.24 1008.25 1008.46 1008.55 1008.81 1008.81 1008.94 1009.10 1009.35 1009.90 1010.40 1010.78 1011.10 1011.39 1011.54 1011.86 1012.08 1012.38
1012.91 1013.34 1013.08 1013.22 1013.45 1013.44 1014.36 1014.28 1014.77 1015.13 1015.48 1014.09 1011.43 1009.13 1007.61 1006.49 1006.52 1006.77 1006.95 1007.36 1007.79 1007.98 1008.22 1008.28 1008.30 1008.38 1008.37 1008.10 1008.01 1008.42 1008.37 1008.21 1008.20 1008.24 1008.51 1008.92 1009.23 1009.63 1009.73 1010.04 1010.56 1010.80 1011.24 1011.72
1012.97 1013.31 1013.58 1013.92 1014.01 1013.88 1013.66 1014.14 1015.35 1015.70 1015.15 1013.30 1010.35 1008.61 1006.62 1006.06 1006.24 1006.59 1006.89 1007.69 1008.10 1008.47 1008.66 1008.68 1008.50 1008.32 1008.37 1008.44 1008.27 1008.11 1007.95 1007.92 1007.83 1007.84 1007.59 1007.84 1008.20 1008.56 1008.90 1009.24 1009.47 1009.81 1010.23 1010.88
1012.80 1012.67 1014.11 1013.84 1013.53 1013.73 1014.15 1014.15 1014.76 1015.10 1015.00 1013.13 1010.63 1007.84 1006.23 1005.47 1005.81 1006.74 1007.41 1008.07 1008.65 1008.96 1009.04 1008.96 1008.75 1008.38 1008.17 1008.12 1008.20 1008.18 1008.02 1007.76 1007.55 1007.54 1007.48 1007.43 1007.68 1007.95 1008.34 1008.59 1008.85 1009.23 1009.77 1010.13
1012.73 1013.36 1013.38 1013.13 1013.22 1012.84 1012.97 1013.23 1014.12 1014.36 1014.51 1013.48 1011.74 1008.17 1006.41 1006.27 1006.47 1007.21 1007.34 1008.08 1008.98 1008.92 1008.92 1008.86 1008.70 1008.23 1007.83 1007.81 1007.72 1007.84 1007.90 1007.88 1007.62 1007.48 1007.54 1007.45 1007.56 1007.79 1007.96 1008.13 1008.41 1008.76 1009.05 1009.51
1012.02 1013.28 1013.40 1013.28 1013.52 1013.04 1012.50 1012.61 1013.12 1013.68 1013.53 1013.09 1011.98 1007.64 1006.72 1006.17 1006.63 1007.04 1007.15 1007.59 1008.35 1008.61 1008.79 1008.55 1008.07 1007.76 1007.46 1007.31 1007.37 1007.40 1007.39 1007.59 1007.62 1007.41 1007.39 1007.29 1007.20 1007.36 1007.45 1007.61 1007.93 1008.36 1008.71 1009.00
1011.86 1012.26 1012.18 1011.50 1010.96 1011.55 1012.21 1012.10 1012.29 1012.77 1012.91 1011.25 1010.78 1007.42 1006.81 1007.09 1007.07 1006.95 1007.31 1007.81 1008.29 1008.26 1008.29 1008.10 1007.70 1007.34 1006.87 1006.88 1006.88 1006.80 1006.72 1006.97 1007.23 1007.34 1007.17 1007.08 1007.06 1007.02 1007.08 1007.35 1007.71 1008.04 1008.40 1008.85
1011.99 1012.04 1012.27 1011.92 1011.81 1011.89 1011.88 1011.77 1012.20 1012.09 1011.65 1011.22 1009.60 1008.33 1004.72 1007.98 1007.77 1007.76 1008.12 1008.34 1008.50 1008.80 1008.66 1008.21 1007.47 1006.81 1006.40 1006.55 1006.54 1006.38 1006.57 1006.56 1006.72 1006.93 1007.04 1006.91 1006.96 1006.77 1006.81 1007.02 1007.36 1007.76 1008.15 1008.55
1012.30 1012.82 1012.85 1012.84 1012.62 1012.54 1012.66 1012.50 1012.24 1011.74 1011.17 1010.87 1009.72 1008.60 1004.23 1008.27 1008.03 1008.04 1008.28 1008.46 1008.37 1008.64 1008.29 1007.51 1006.95 1006.85 1006.65 1006.29 1006.16 1006.13 1006.16 1006.21 1006.56 1006.68 1006.62 1006.78 1007.08 1007.20 1007.19 1007.35 1007.70 1008.07 1008.32 1008.60
1012.61 1013.27 1014.06 1013.85 1013.62 1013.47 1013.06 1011.74 1011.58 1011.50 1010.96 1010.55 1010.06 1008.11 1007.34 1008.40 1008.21 1007.93 1008.01 1008.32 1008.33 1008.20 1007.34 1007.18 1006.90 1006.77 1006.58 1006.32 1005.98 1005.67 1005.57 1005.79 1006.22 1006.46 1006.40 1006.61 1006.92 1007.32 1007.64 1007.72 1008.02 1008.21 1008.53 1008.85
1012.89 1013.93 1014.60 1014.83 1014.66 1013.35 1011.32 1010.87 1010.57 1010.38 1009.95 1009.79 1009.40 1008.38 1007.26 1008.42 1007.74 1008.27 1008.22 1008.21 1008.05 1007.79 1007.47 1007.19 1006.97 1006.68 1006.37 1005.98 1005.60 1005.20 1005.21 1005.60 1005.89 1005.95 1006.34 1006.70 1006.84 1007.20 1007.37 1007.70 1007.82 1008.06 1008.38 1008.63
1014.42 1014.82 1015.13 1015.16 1014.33 1012.71 1011.36 1010.56 1010.62 1010.31 1009.56 1009.41 1008.88 1008.15 1008.25 1008.05 1007.55 1008.07 1008.02 1008.31 1008.31 1008.25 1008.02 1007.86 1007.62 1007.00 1006.33 1006.02 1005.46 1005.07 1005.21 1005.31 1005.59 1005.99 1006.06 1006.29 1006.42 1006.80 1007.18 1007.26 1007.46 1007.64 1007.87 1008.36
1015.72 1015.82 1015.64 1015.34 1014.29 1012.80 1010.65 1010.65 1010.30 1010.69 1010.33 1009.59 1009.22 1008.80 1008.90 1008.85 1008.67 1009.17 1009.60 1009.62 1009.39 1009.36 1009.27 1008.97 1008.32 1007.47 1006.50 1005.97 1005.60 1005.36 1005.07 1004.94 1005.36 1005.38 1004.93 1005.11 1005.76 1006.16 1006.38 1006.69 1007.04 1007.33 1007.71 1008.24
1015.70 1015.72 1015.38 1014.96 1014.13 1012.73 1011.30 1011.39 1011.70 1012.15 1011.09 1010.48 1010.74 1011.15 1011.32 1011.43 1011.62 1011.98 1011.89 1011.45 1011.58 1011.32 1010.61 1009.94 1008.98 1008.13 1007.17 1006.56 1005.96 1005.32 1004.90 1004.56 1004.67 1004.29 1004.35 1004.52 1004.83 1005.27 1005.81 1006.47 1007.03 1007.35 1007.64 1008.18
1014.48 1014.84 1014.73 1014.93 1014.30 1012.52 1011.32 1012.45 1013.38 1013.68 1013.15 1013.78 1013.89 1014.15 1014.25 1014.28 1014.22 1013.81 1013.76 1013.40 1012.89 1012.09 1011.30 1010.79 1009.97 1008.62 1007.77 1007.33 1006.97 1005.59 1004.39 1004.16 1004.04 1003.97 1003.89 1004.14 1004.13 1004.82 1005.50 1006.18 1006.74 1007.36 1007.81 1008.15
1014.03 1013.31 1013.67 1013.85 1012.76 1011.81 1012.24 1014.09 1016.00 1016.55 1016.61 1016.85 1016.84 1016.69 1016.69 1016.00 1015.45 1015.14 1014.50 1014.20 1013.94 1013.51 1012.75 1011.76 1010.67 1009.25 1008.09 1007.71 1007.14 1005.82 1004.26 1004.23 1003.82 1003.59 1003.58 1003.83 1004.44 1004.46 1004.77 1005.58 1006.21 1006.79 1007.42 1007.72
1014.39 1014.20 1014.41 1014.67 1013.11 1013.34 1014.80 1016.72 1018.16 1019.10 1019.50 1019.36 1019.24 1019.13 1018.58 1017.54 1016.76 1015.96 1015.37 1014.90 1014.48 1014.06 1013.40 1012.77 1011.70 1009.94 1008.12 1007.63 1006.82 1005.83 1004.99 1004.47 1004.05 1003.66 1003.59 1003.63 1004.13 1004.40 1004.51 1004.96 1005.20 1005.60 1006.26 1006.78
1015.98 1016.09 1016.40 1016.35 1015.21 1016.17 1017.84 1019.47 1020.76 1020.87 1021.08 1021.17 1020.99 1020.54 1019.81 1018.97 1017.85 1017.09 1015.86 1015.26 1014.82 1014.23 1013.76 1013.07 1012.00 1010.42 1008.63 1007.84 1006.34 1005.51 1004.77 1004.36 1003.92 1003.60 1003.18 1003.26 1003.29 1004.24 1003.93 1003.87 1004.51 1004.76 1004.98 1004.95
1019.92 1020.75 1020.59 1019.88 1021.08 1022.05 1021.42 1021.82 1022.37 1022.35 1022.79 1022.73 1022.04 1020.68 1020.44 1020.20 1018.96 1018.15 1016.48 1015.77 1015.01 1014.19 1013.90 1013.19 1011.97 1010.46 1009.08 1008.27 1006.67 1005.38 1004.61 1004.19 1003.66 1003.30 1002.73 1002.65 1002.88 1003.15 1004.08 1003.84 1003.89 1004.44 1004.87 1005.30
Wind_Speed
10 7 13 20 9 7 9 8 19 15 3 6 15 17 20 18 20 20 19 18 16 15 16 16 14 16 16 16 18 18 18 18 13 11 11 10 10 9 9 9 12 13 12 13
9 19 18 18 11 2 6 6 11 6 1 4 12 19 20 20 21 20 21 20 21 20 16 16 16 15 17 19 18 18 18 17 15 12 11 10 9 9 10 9 11 13 13 13
16 8 19 19 14 11 10 11 7 8 5 10 11 23 22 25 23 23 23 21 21 21 21 19 16 18 17 18 18 19 19 19 18 18 11 9 9 10 10 10 10 12 14 14
17 19 14 16 24 18 18 16 10 10 5 3 1 11 16 17 17 16 15 17 21 22 21 21 19 18 19 17 16 17 18 19 17 18 15 17 13 12 12 11 10 11 15 15
14 18 19 19 20 21 13 16 19 16 8 10 14 9 7 10 15 17 17 21 21 20 19 19 18 18 17 12 15 14 16 17 18 18 18 14 16 12 10 10 14 14 12 15
7 7 16 20 16 20 8 7 12 12 8 8 16 15 11 11 13 13 17 15 15 14 12 13 12 11 11 9 8 12 15 17 17 18 19 20 18 16 12 13 12 11 11 11
7 12 4 7 16 16 13 15 4 6 6 8 4 10 14 12 10 13 11 6 4 5 6 7 8 8 9 11 11 11 15 17 17 19 19 20 20 18 18 15 12 12 11 11
9 10 15 15 14 9 14 13 5 5 6 4 1 11 5 11 14 16 15 11 8 8 8 9 9 10 10 9 11 13 15 17 17 18 20 18 20 14 14 15 12 11 11 11
4 2 11 11 10 15 9 9 5 3 2 2 8 12 14 15 12 9 7 7 5 5 9 9 9 8 10 10 9 11 13 16 16 18 16 17 18 19 16 18 15 12 12 10
3 4 6 10 4 6 7 11 4 2 5 7 9 13 11 4 5 4 2 4 4 7 7 10 10 8 7 9 9 10 12 14 14 14 15 15 17 17 17 15 16 16 14 13
4 2 4 9 10 10 4 6 2 4 3 5 5 8 6 5 7 8 8 4 5 5 4 9 9 8 7 5 6 9 10 10 11 12 13 14 14 16 15 14 14 14 12 12
8 2 5 12 2 5 17 10 7 6 6 6 4 11 5 7 1 4 6 7 2 3 4 6 6 10 11 9 6 5 7 8 9 9 11 12 12 12 13 14 14 13 13 13
9 4 4 8 2 4 10 17 15 15 5 7 4 9 7 8 1 5 7 9 9 8 10 12 13 11 11 10 8 6 6 7 7 7 9 10 12 13 14 14 13 12 12 11
13 8 8 8 5 7 13 13 19 18 11 19 16 31 24 13 14 16 15 13 15 14 14 14 15 15 14 10 8 7 6 6 5 7 8 10 11 11 11 11 11 11 8 8
6 6 13 17 17 6 8 18 19 21 24 21 22 27 32 11 11 12 14 13 14 14 14 17 16 16 15 12 12 8 8 6 5 7 9 10 8 8 9 8 7 7 7 8
8 1 7 8 12 8 9 6 11 17 20 18 25 26 37 15 16 14 9 14 14 14 20 21 18 17 15 15 13 11 10 7 6 8 9 7 6 5 5 5 5 5 5 5
10 5 3 4 6 7 9 23 22 20 18 19 19 27 23 18 17 16 17 17 18 20 21 18 17 16 14 14 13 11 12 6 6 7 6 6 6 7 6 6 7 7 7 5
7 6 2 2 3 10 10 10 16 23 25 23 23 27 28 22 22 17 18 16 18 19 17 15 13 16 17 15 14 10 9 6 7 7 6 6 7 7 7 7 7 6 6 7
1 6 4 5 9 10 14 9 8 11 18 18 20 22 20 21 19 15 11 14 14 15 14 15 17 20 20 17 16 9 7 7 7 8 8 9 9 9 11 10 10 8 7 6
2 2 5 4 6 7 9 8 10 8 12 16 18 20 18 15 13 8 19 17 17 16 15 17 20 20 20 17 16 9 8 10 10 12 15 11 11 11 12 11 11 6 6 4
5 3 7 7 4 7 10 6 0 7 11 9 12 12 12 9 12 15 18 19 17 17 18 19 20 19 19 18 14 14 14 14 14 12 9 10 11 12 11 9 7 6 7 7
10 8 5 5 4 12 8 4 10 6 12 12 14 14 15 15 17 17 15 17 18 19 21 19 19 19 19 17 14 18 18 15 12 7 9 10 10 8 8 11 7 7 8 9
6 7 6 9 8 4 3 8 12 13 9 12 15 18 18 18 19 20 20 18 17 18 18 17 19 22 20 16 12 18 19 15 8 7 8 6 7 9 10 12 11 9 9 9
3 4 3 1 11 14 3 12 16 15 14 14 15 17 19 21 22 22 20 18 18 16 15 15 18 22 23 18 16 16 15 13 9 10 8 7 10 10 10 8 9 10 11 10
3 1 3 8 14 15 14 14 17 21 17 17 18 18 20 21 22 23 21 21 18 17 17 16 17 20 23 20 21 17 14 8 11 10 8 9 9 10 10 10 9 10 10 12
6 5 3 6 6 6 9 18 25 18 19 20 21 24 21 19 22 22 21 18 20 20 18 18 20 21 20 21 22 19 12 8 11 11 8 9 9 8 8 8 5 2 7 10
Wind_Direction
167 166 197 204 218 341 309 329 262 241 3 282 253 257 260 258 260 249 249 257 254 250 246 239 223 215 214 218 217 218 211 208 204 203 208 209 209 209 214 213 209 208 207 204
167 216 190 184 150 111 339 288 284 281 151 284 273 273 275 269 260 258 261 255 254 252 246 245 232 217 214 219 219 220 220 211 207 202 206 207 210 214 215 211 216 213 210 208
218 192 211 181 176 178 227 254 240 269 284 259 289 272 257 258 251 250 251 251 256 255 250 241 230 226 223 218 215 216 216 215 210 210 204 203 207 214 217 212 209 214 215 208
225 221 192 200 211 199 214 184 201 227 252 254 191 290 268 277 278 236 246 247 250 245 244 247 246 222 213 222 219 219 216 212 215 207 210 204 204 206 212 208 209 210 213 216
203 200 203 214 214 196 243 184 201 217 225 282 248 250 269 245 258 256 258 247 241 242 248 250 248 244 254 233 214 222 224 217 213 211 208 215 214 218 212 214 216 212 211 212
203 220 199 215 211 193 117 141 205 225 225 243 237 239 268 258 265 265 254 253 254 255 259 264 264 272 274 259 229 216 221 222 216 210 212 216 218 214 213 216 215 216 208 206
177 179 127 183 206 194 167 165 172 187 206 248 155 225 245 271 261 260 275 327 356 349 319 297 289 271 254 245 245 227 224 227 219 214 213 214 222 218 224 221 217 213 213 209
153 178 174 180 196 173 197 176 175 214 193 263 142 240 242 253 267 264 267 282 290 302 315 317 316 300 286 266 246 232 228 232 224 217 218 214 218 222 219 221 220 218 216 215
107 168 175 177 198 170 170 212 281 313 124 267 233 254 263 254 251 264 272 273 281 15 5 357 346 330 309 297 261 246 241 232 226 223 218 217 218 218 222 219 217 218 213 219
228 115 222 202 67 260 221 153 128 181 212 233 248 252 251 263 217 226 263 354 20 6 25 11 360 336 328 314 303 279 254 249 239 233 224 219 221 221 222 222 218 217 215 209
239 223 169 159 201 175 137 172 170 134 226 269 272 246 9 218 259 81 71 2 8 21 351 343 338 336 329 312 295 284 273 260 246 240 234 226 224 226 224 224 223 218 216 209
184 154 169 192 117 239 209 185 156 188 194 245 318 257 307 296 172 79 19 36 37 230 294 312 323 332 335 328 305 273 268 268 261 250 245 241 234 227 228 224 223 219 216 213
147 182 143 169 204 206 217 213 213 231 271 198 228 260 80 47 15 359 295 336 335 5 342 326 334 330 323 314 314 298 268 260 264 259 250 239 229 225 225 224 222 221 217 218
166 212 221 240 204 173 208 224 220 224 232 250 242 270 254 270 289 300 314 342 338 332 332 331 318 312 306 302 288 283 268 254 244 246 245 240 239 229 226 221 223 222 212 210
206 227 239 247 266 272 281 224 229 233 235 240 252 258 266 272 298 333 322 315 318 311 311 308 296 293 296 303 297 290 271 246 225 234 236 238 240 236 224 218 203 195 194 206
194 247 235 258 261 239 241 232 235 243 253 268 260 273 271 311 300 283 284 290 295 302 293 290 292 301 306 301 293 298 283 259 211 230 233 229 209 211 209 178 166 164 172 168
173 153 133 237 191 244 257 237 239 244 238 232 245 253 284 282 279 287 300 295 289 282 284 295 301 305 302 297 295 282 277 257 218 231 219 209 186 199 207 185 177 181 176 156
185 151 114 201 108 226 237 257 234 241 246 248 258 265 273 276 276 277 280 286 279 284 296 304 311 314 311 307 300 267 257 237 225 221 219 204 182 204 188 181 182 172 166 177
2 174 168 213 223 287 302 242 222 222 254 249 253 267 283 278 286 286 302 355 353 344 341 335 322 312 311 310 302 268 249 233 230 234 215 209 196 188 197 197 190 182 167 175
134 346 211 167 231 230 272 5 203 216 266 255 251 262 273 287 286 314 350 347 340 340 337 332 322 315 312 316 315 290 253 241 240 231 225 205 196 194 200 198 195 172 172 151
177 187 225 215 252 268 257 241 223 158 271 22 2 360 347 323 333 337 336 329 329 323 324 323 315 311 310 320 324 305 276 262 253 243 227 204 195 191 193 182 189 169 156 143
175 174 196 204 241 262 192 168 222 346 23 27 357 354 338 327 320 315 323 317 319 321 324 320 313 309 311 314 310 299 290 284 266 235 217 212 186 182 177 177 160 164 163 159
206 192 175 203 214 241 170 54 54 26 25 359 342 336 332 320 320 320 318 319 318 317 314 312 309 307 304 305 298 294 292 300 269 225 224 201 187 181 171 174 173 168 174 174
232 257 257 108 252 263 91 71 29 14 358 345 340 330 325 318 318 314 313 313 313 310 306 307 303 301 300 305 298 286 287 287 264 236 222 190 195 194 180 184 182 179 182 181
38 164 190 255 275 333 77 42 1 338 341 339 329 321 318 316 311 311 308 307 306 309 310 304 302 295 295 304 301 301 295 261 254 240 218 208 196 204 194 186 191 199 202 193
9 16 258 260 23 322 296 336 330 338 339 330 324 321 317 314 309 308 301 305 309 307 309 302 302 299 305 307 300 304 298 249 251 246 221 211 204 187 205 193 145 156 177 180